User: anonymous   Login
Location: Marsån
(66.4167°N, 22.2833°E)
Time: 00:55:39
(UTC+00:00)
Language:

SL-16 R/B - Orbit

View from above orbital plane
View from above orbital plane
View from above satellite
View from above satellite

Ground track
Ground track

The orbit data is extracted from the following two-line orbital elements,

1 28353U 04021B   24144.48202071 -.00000097  00000-0 -25710-4 0  9994
2 28353  70.9986 167.3194 0006987 299.9299  60.1129 14.14409730 30186
Epoch (UTC): 23 May 2024 11:34:06
Eccentricity: 0.0006987
inclination: 70.9986°
perigee height: 839 km
apogee height: 849 km
right ascension of ascending node: 167.3194°
argument of perigee: 299.9299°
revolutions per day: 14.14409730
mean anomaly at epoch: 60.1129°
orbit number at epoch: 3018

The dashed part of the orbit path shows where the satellite is in the earth's shadow,  

DLR